www.pogodaiklimat.ru

Погода и климат >> Архив погоды >> Россия >> Новосибирская область >> Каргат


ПОГОДА в Каргате

  • Прогноз погоды в Каргате
  • Монитор погоды в Каргате

АРХИВ ПОГОДЫ в Каргате

Время (UTC), дата Ветер
(напр.,м/с)
 
Видим.   Явления Облачность Т
(С)
Тd
(С)
f
(%)
Тe
(С)
Тes
(С)
Комфортность P
(гПа)
Po
(гПа)
Тmin
(С)
Tmax
(С)
R
(мм)
R24
(мм)
S
(см)
00 13.09 ЮЗ 3 10 км слаб. ливневой дождь 10/10 600 м
[Cb cap]
+8.6 +5.3 80 +6 +6 1014.6 998.2 +5.4 0.1
03 13.09 З 1 4000 м ливневой дождь 10 баллов +8.4 +6.9 90 +8 +8 1016.4 1000.0
06 13.09 С 3 20 км {ливн. осадки} 10/10 600 м
[Sc]
+8.8 +6.9 88 +6 +6 1017.7 1001.3
09 13.09 С 4 20 км 10 баллов +8.3 +5.1 80 +5 +5 1019.2 1002.7
12 13.09 З 1 20 км 9/3 600 м
[Sc diur, vesp Ci sp]
+9.9 +3.4 64 +10 +10 1018.3 1001.9 +10.0 2
15 13.09 Ю 1 10 км 4 балла +1.6 +0.3 91 -0 -0 1020.9 1004.0
18 13.09 Ю 1 10 км 6/0
[Ci sp]
-0.1 -0.9 94 -2 -2 1021.1 1004.0
21 13.09 Ю 2 1000 м дымка 6 баллов -0.8 -1.5 95 -5 -5 1021.1 1004.0
00 14.09 Ю 2 500 м туман 8/0
[Ci sp]
-1.1 -1.7 96 -5 -5 1020.1 1003.0 -1.5
03 14.09 Ю 3 10 км в посл. час туман 7 баллов +6.9 +6.0 94 +4 +4 1020.6 1004.0
06 14.09 ЮЗ 5-10
{10}
50 км {туман} 9/8 600 м
[Cu hum Ci fib]
+12.5 +6.4 66 +10 +11 1017.4 1001.1
09 14.09 ЮЗ 4 50 км 9 баллов +16.7 +6.2 50 +16 +17 1017.3 1001.3
12 14.09 Ю 3
{10}
50 км 9/5 600 м
[Sc Ac As Ci sp]
+14.1 +7.7 65 +13 +13 1015.2 999.1 +16.7
15 14.09 Ю 2 4000 м слаб. ливневой дождь 10 баллов +10.7 +8.3 85 +9 +9 1016.3 1000.0
18 14.09 Ю 2 10 км {ливн. осадки} 9/0
[Ci sp]
+7.7 +6.2 90 +6 +6 1015.2 998.7
21 14.09 ЮЗ 2 2000 м дымка 9/0
[Ci sp]
+8.0 +6.9 93 +6 +6 1015.1 998.7
00 15.09 ЮЗ 2 200 м туман 10/0
[Ci sp]
+8.2 +7.5 95 +6 +6 1014.9 998.5 +7.0 0.3
03 15.09 ЮЗ 4 10 км {туман} 4/1 600 м
[Cu med, cong Ci sp]
+12.7 +11.9 95 +11 +12 1014.8 998.7
06 15.09 З 4 20 км {туман} 8/3 600 м
[Cu med, cong Ac trans Ci sp]
+20.0 +12.0 60 +22 +23 комфорт 1014.4 998.7
09 15.09 З 4 20 км гроза без осадков 8/6 600 м
[Cb calv Ci sp]
+22.1 +10.6 48 +24 +25 комфорт 1014.3 998.7
12 15.09 ЮЗ 2 20 км в посл. час гроза 4/3 600 м
[Cu med, cong Ci sp]
+19.5 +11.7 61 +21 +22 комфорт 1014.2 998.4 +22.1
15 15.09 Ю 1 10 км местами туман поземный 5/0
[Ci fib]
+11.2 +9.6 90 +11 +11 1017.6 1001.3
18 15.09 Ю 2 10 км местами туман поземный 5/0
[Ci fib]
+8.4 +7.3 93 +6 +6 1017.8 1001.3
21 15.09 Ю 1 50 м туман 5/0
[Ci fib]
+5.7 +4.8 94 +4 +4 1017.9 1001.3
00 16.09 ЮВ 1 200 м туман 5/0
[Ci fib]
+4.9 +4.2 95 +3 +3 1017.6 1000.9 +4.6
03 16.09 Ю 1 4000 м дымка {туман} 6/0
[Ci sp]
+13.3 +12.0 92 +13 +16 1017.3 1001.1 +4.4
06 16.09 Ю 2 20 км {туман} 3/0
[Ci sp]
+22.4 +10.5 47 +24 +30 комфорт 1017.0 1001.3
09 16.09 ЮЗ 3 20 км 6/3 600 м
[Cu med, cong Ci sp]
+23.1 +7.6 37 +24 +26 комфорт 1015.6 1000.0
12 16.09 Ю 1 20 км 8/3 600 м
[Cu med, cong Ci sp]
+19.4 +9.5 53 +21 +22 комфорт 1014.5 998.7 +24.4
15 16.09 ЮВ 2 20 км 3/3 600 м
[Sc Ci sp]
+12.1 +8.9 81 +11 +11 1016.2 1000.0
18 16.09 Ю 2 10 км 3/0
[Ci sp]
+9.7 +7.5 86 +8 +8 1015.0 998.7
21 16.09 ЮВ 1 10 км 4/0
[Ac trans Ci sp]
+8.0 +6.6 91 +7 +7 1015.1 998.7
00 17.09 Ю 1 10 км 8/4 600 м
[Sc Ac trans Ci sp]
+9.6 +8.3 92 +9 +9 1012.8 996.5 +6.9
03 17.09 Ю 4 10 км 8/0
[Ac trans]
+16.8 +8.5 58 +16 +17 1013.2 997.3
06 17.09 Ю 6-10
{12}
20 км 9/3 600 м
[Sc Ac trans Ci]
+21.7 +8.1 42 +23 +24 комфорт 1009.7 994.0
09 17.09 ЮЗ 7-13
{14}
20 км 9/6 600 м
[Sc diur, vesp Ci sp]
+23.1 +5.2 31 +23 +24 комфорт 1008.2 992.7
12 17.09 ЮЗ 4
{17}
10 км слаб. ливневой дождь 10/8 600 м
[Cb cap Ac und]
+15.2 +8.8 66 +14 +14 1011.3 995.3 +24.4 0.0
15 17.09 Ю 3 10 км 9 баллов +12.8 +7.0 68 +12 +12 1013.4 997.3
18 17.09 Ю 2 10 км {ливн. осадки} 9/9 600 м
[Sc]
+11.7 +7.4 75 +11 +11 1014.9 998.7
21 17.09 Ю 2 10 км 6 баллов +8.4 +5.9 84 +7 +7 1015.1 998.7
00 18.09 Ю 2 10 км 8/5 600 м
[Sc Ac trans]
+7.9 +5.3 84 +6 +6 1014.8 998.3 +7.5 0.0
03 18.09 Ю 4 50 км 9 баллов +14.0 +7.1 63 +13 +13 1016.1 1000.0
06 18.09 Ю 5 50 км 9 баллов +18.7 +5.9 43 +19 +19 1015.9 1000.0
09 18.09 ЮЗ 4 50 км 9 баллов +21.8 +4.4 32 +22 +22 комфорт 1015.7 1000.0
12 18.09 Ю 2 50 км 9/3 600 м
[Sc Ac As Ci fib]
+18.6 +6.0 44 +19 +20 1014.2 998.3 +22.4
15 18.09 ЮВ 2 20 км 9 баллов +15.2 +5.4 52 +15 +15 1014.7 998.7
18 18.09 Ю 4 20 км 9 баллов +15.3 +7.6 60 +14 +14 1012.0 996.0
21 18.09 Ю 4 20 км 9 баллов +14.0 +7.3 64 +13 +13 1012.1 996.0
00 19.09 Ю 3 20 км 9/5 600 м
[Sc Ac trans Ci sp]
+14.7 +7.7 63 +14 +14 1010.6 994.6 +13.3
03 19.09 ЮЗ 4
{11}
20 км в посл. час ливневой дождь 9/8 600 м
[Cb cap Ci sp]
+16.6 +8.9 60 +16 +16 1011.5 995.6
06 19.09 ЮЗ 5 20 км 9 баллов +19.4 +9.8 54 +20 +21 1013.1 997.3
09 19.09 ЮЗ 5 20 км 2 балла +23.4 +8.3 38 +25 +27 комфорт 1011.5 996.0
12 19.09 Ю 2 20 км 3/0
[Ci sp]
+21.1 +8.8 45 +22 +22 комфорт 1010.4 994.8 +23.9 0.0
15 19.09 Ю 3 20 км 7 баллов +17.0 +8.2 56 +17 +17 1010.6 994.7
18 19.09 Ю 4 20 км 7 баллов +16.7 +6.8 52 +16 +16 1006.5 990.7
21 19.09 Ю 5 50 км 9 баллов +17.5 +4.4 42 +17 +17 1003.7 988.0

 

Местоположение метеостанции Каргат (Новосибирская область, Россия): широта 55.18 долгота 80.27 высота над уровнем моря 135 м.

В архиве по умолчанию представлена погода в Каргате за последнюю неделю. Архивные данные за месяц целиком и за предыдущие месяцы, начиная с января 2011 года, Вы можете получить, выбрав интересующий диапазон дат из раскрывающегося списка и нажав кнопку "Ввод!".


*Определитесь, кто Вы:
робот инопланетянин человек

Внимание! Время в таблицах - всемирное. Для получения местного времени необходимо прибавить поправку, которая равна 7 ч.

Смотрите также архив погоды в соседних городах и на ближайших метеорологических станциях:

Погода в Убинском (Новосибирская область, Россия) (43 км)
Погода в Чулыме (Новосибирская область, Россия) (45 км)
Погода в Ужанихе (Новосибирская область, Россия) (75 км)
Погода в Крещенке (Новосибирская область, Россия) (76 км)
Погода в Довольном (Новосибирская область, Россия) (83 км)
Погода в Кочках (Новосибирская область, Россия) (95 км)
Погода в Здвинске (Новосибирская область, Россия) (114 км)
Погода в Барабинске (Новосибирская область, Россия) (122 км)
Погода в Коченево (Новосибирская область, Россия) (126 км)
Погода в Ордынском (Новосибирская область, Россия) (138 км)

Пояснения к столбцам:

Ветер - указаны скорость ветра в м/с - средняя за 10 мин, порывы в срок и между сроками (в фигурных скобках) и направление, откуда дует ветер: С - северный, СВ - северо-восточный, В - восточный, ЮВ - юго-восточный, Ю - южный, ЮЗ - юго-западный, З - западный, СЗ - северо-западный.
Видимость - горизонтальная дальность видимости в метрах или километрах. При видимости от 1 до 10 км при отсутствии осадков обычно наблюдается дымка, при ухудшении видимости до 1 км и менее - туман. В сухую погоду видимость может ухудшаться дымом, пылью или мглою.
Явления - указаны атмосферные явления, наблюдавшиеся в срок или в последний час перед сроком; фигурными скобками обозначены явления, наблюдавшиеся между сроками (за 1-3 часа до срока); квадратными скобками обозначены град или гололедные отложения с указанием их диаметра в мм.
Облачность - указаны через наклонную черту общая и нижняя облачность в баллах и высота нижней границы облаков в метрах; квадратными скобками обозначены формы облаков: Ci - перистые, Cs - перисто-слоистые, Cc - перисто-кучевые, Ac - высококучевые, As - высокослоистые, Sc - слоисто-кучевые, Ns - слоисто-дождевые, Cu - кучевые, Cb - кучево-дождевые. Подробнее классификацию облаков см. в Атласе облаков (PDF).
T - Температура воздуха - температура, измеренная на высоте 2 м над землей.
Td - Температура точки росы - температура, при понижении до которой содержащийся в воздухе водяной пар достигнет насыщения.
f - Относительная влажность воздуха - влажноcть воздуха, измеренная на высоте 2 м над землей.
Te - Эффективная температура - температура, которую ощущает одетый по сезону человек в тени. Характеристика душности погоды. При расчете учитывается влияние влажности воздуха и скорости ветра на теплоощущения человека.
Tes - Эффективная температура на солнце - температура, которую ощущает человек, с поправкой на солнечный нагрев. Характеристика знойности погоды. Зависит от высоты солнца над горизонтом, облачности и скорости ветра. Ночью, в пасмурную погоду, а также при ветре 12 м/с и более поправка равна нулю.
P - Атмосферное давление - приведенное к уровню моря атмосферное давление.
Po - Атмосферное давление - измеренное на уровне метеостанции атмосферное давление.
Tmin - Минимальная температура - минимум температуры воздуха на высоте 2 м над землей.
Tmax - Максимальная температура - максимум температуры воздуха на высоте 2 м над землей.
R - Количество осадков - Количество выпавших осадков за период времени, мм. При наведении курсора мыши на число - период времени, за который выпало указанное количество осадков.
R24 - Количество осадков - Количество выпавших осадков за 24 часа, мм.
S - Снежный покров - Высота снежного покрова, см. При наведении курсора мыши на число - состояние снежного покрова и степень покрытия местности в баллах.